Bolton Field, OH

9:36 PM EDT on June 22, 2017 (GMT -0400)
Bolton

Weather History for KTZR - March, 2014

Change the Weather History Date:

Monday, March 10, 2014

  Actual Average Record
Temperature  
Mean Temperature 46 °F -  
Max Temperature 60 °F 44 °F 77 °F (2009)
Min Temperature 32 °F 27 °F 14 °F (2003)
Degree Days  
Heating Degree Days 19    
Moisture  
Dew Point 33 °F    
Average Humidity 68    
Maximum Humidity 82    
Minimum Humidity 45    
Precipitation  
Precipitation 0.00 in - - ()
Sea Level Pressure  
Sea Level Pressure 29.83 in    
Wind  
Wind Speed 9 mph (SW)    
Max Wind Speed 18 mph    
Max Gust Speed 25 mph    
Visibility 10 miles    
Events      
Averages and records for this station are not official NWS values.
T = Trace of Precipitation, MM = Missing Value Source: NWS Daily Summary

Daily Weather History Graph

Daily Weather History Graph

Search for Another Location

Airport or City:

Trip Planner

Search our weather history database for the weather conditions in past years. The results will help you decide how hot, cold, wet, or windy it might be!

Date:

Astronomy

Mar. 10, 2014 Rise Set
Actual Time 7:51 AM EDT 7:34 PM EDT
Civil Twilight 7:25 AM EDT 8:01 PM EDT
Nautical Twilight 6:53 AM EDT 8:32 PM EDT
Astronomical Twilight 6:22 AM EDT 9:04 PM EDT
Moon 2:17 PM EDT (3/10) 4:02 AM EDT (3/10)
Length of Visible Light 12h 36m
Length of Day
11h 42m
Waxing Gibbous, 70% of the Moon is Illuminated
Mar 10
Waxing Gibbous
Mar 16
Full
Mar 23
Last Quarter
Mar 30
New
Apr 7
First Quarter

Hourly Weather History & Observations

Time (EDT) Temp. Windchill Dew Point Humidity Pressure Visibility Wind Dir Wind Speed Gust Speed Precip Events Conditions
12:15 AM 33.1 °F 26.1 °F 28.0 °F 82% 29.99 in 10.0 mi SSW 8.1 mph - N/A   Clear
12:35 AM 33.8 °F 27.7 °F 28.4 °F 81% 29.98 in 10.0 mi SSW 6.9 mph - N/A   Clear
12:55 AM 34.2 °F 27.5 °F 27.9 °F 78% 29.97 in 10.0 mi SSW 8.1 mph - N/A   Clear
1:15 AM 33.4 °F - 27.0 °F 77% 29.96 in 10.0 mi North - - N/A   Clear
1:35 AM 33.8 °F - 27.0 °F 76% 29.95 in 10.0 mi North - - N/A   Clear
1:55 AM 33.1 °F - 26.6 °F 77% 29.94 in 10.0 mi North - - N/A   Clear
2:15 AM 32.9 °F - 26.6 °F 78% 29.94 in 10.0 mi North - - N/A   Clear
2:35 AM 32.4 °F - 26.1 °F 78% 29.93 in 10.0 mi North - - N/A   Clear
2:55 AM 33.3 °F - 26.6 °F 77% 29.92 in 10.0 mi North - - N/A   Clear
3:10 AM 33.8 °F - 26.8 °F 75% 29.92 in 10.0 mi North - - N/A   Clear
3:35 AM 35.4 °F - 27.3 °F 72% 29.91 in 10.0 mi North - - N/A   Clear
3:55 AM 36.3 °F - 27.5 °F 70% 29.90 in 10.0 mi North - - N/A   Clear
4:15 AM 36.9 °F - 28.4 °F 71% 29.89 in 10.0 mi North - - N/A   Clear
4:35 AM 37.0 °F - 28.9 °F 73% 29.89 in 10.0 mi North - - N/A   Clear
4:55 AM 36.7 °F - 28.9 °F 74% 29.89 in 10.0 mi North - - N/A   Clear
5:15 AM 35.8 °F - 29.1 °F 77% 29.88 in 10.0 mi North - - N/A   Clear
5:35 AM 35.8 °F - 29.3 °F 77% 29.88 in 10.0 mi North - - N/A   Clear
5:50 AM 35.8 °F - 29.3 °F 77% 29.88 in 10.0 mi North - - N/A   Clear
6:15 AM 35.6 °F - 29.3 °F 78% 29.88 in 10.0 mi North - - N/A   Clear
6:35 AM 35.1 °F 28.6 °F 29.1 °F 79% 29.87 in 10.0 mi SW 8.1 mph - N/A   Clear
6:55 AM 35.1 °F 29.3 °F 29.1 °F 79% 29.87 in 10.0 mi SW 6.9 mph - N/A   Clear
7:15 AM 35.6 °F 29.9 °F 28.4 °F 75% 29.86 in 10.0 mi South 6.9 mph - N/A   Clear
7:47 AM 35.6 °F 29.9 °F 28.4 °F 75% 29.85 in 10.0 mi SSW 6.9 mph - N/A   Scattered Clouds
8:47 AM 37.4 °F 32.8 °F 30.2 °F 75% 29.87 in 10.0 mi WSW 5.8 mph - N/A   Mostly Cloudy
9:47 AM 39.2 °F 33.6 °F 30.2 °F 70% 29.87 in 10.0 mi SSW 8.1 mph - N/A   Mostly Cloudy
10:47 AM 41.0 °F 39.0 °F 32.0 °F 70% 29.87 in 10.0 mi South 3.5 mph - N/A   Overcast
11:50 AM 42.8 °F - 33.8 °F 70% 29.85 in 10.0 mi North - - N/A   Overcast
12:53 PM 46.4 °F 39.8 °F 35.6 °F 66% 29.84 in 10.0 mi SW 16.1 mph - N/A   Overcast
1:50 PM 51.8 °F - 39.2 °F 62% 29.81 in 10.0 mi SW 16.1 mph - N/A   Overcast
2:50 PM 53.6 °F - 39.2 °F 58% 29.79 in 10.0 mi SW 18.4 mph 25.3 mph N/A   Mostly Cloudy
3:50 PM 57.2 °F - 39.2 °F 51% 29.74 in 10.0 mi North - - N/A   Clear
4:50 PM 60.8 °F - 41.0 °F 48% 29.72 in 10.0 mi North - - N/A   Clear
5:50 PM 60.8 °F - 39.2 °F 45% 29.70 in 10.0 mi North - - N/A   Clear
6:50 PM 55.4 °F - 39.2 °F 54% 29.70 in 10.0 mi SW 13.8 mph 23.0 mph N/A   Clear
7:35 PM 53.6 °F - 39.2 °F 58% 29.70 in 10.0 mi SW 10.4 mph 19.6 mph N/A   Clear
7:55 PM 52.2 °F - 39.2 °F 61% 29.71 in 10.0 mi WSW 6.9 mph - N/A   Clear
8:15 PM 51.8 °F - 38.8 °F 61% 29.71 in 10.0 mi SW 9.2 mph - N/A   Clear
8:35 PM 50.9 °F - 38.3 °F 62% 29.72 in 10.0 mi SW 10.4 mph - N/A   Clear
8:55 PM 50.5 °F - 37.4 °F 61% 29.72 in 10.0 mi SW 9.2 mph - N/A   Clear
9:15 PM 51.1 °F - 37.0 °F 59% 29.72 in 10.0 mi WSW 8.1 mph - N/A   Clear
9:35 PM 51.8 °F - 36.7 °F 56% 29.73 in 10.0 mi WSW 10.4 mph - N/A   Clear
9:55 PM 50.2 °F - 36.5 °F 59% 29.73 in 10.0 mi WSW 8.1 mph - N/A   Clear
10:15 PM 48.2 °F - 36.0 °F 63% 29.73 in 10.0 mi WSW 8.1 mph - N/A   Clear
10:35 PM 49.5 °F - 36.5 °F 61% 29.74 in 10.0 mi WSW 8.1 mph - N/A   Clear
10:55 PM 49.6 °F - 36.5 °F 61% 29.75 in 10.0 mi West 6.9 mph - N/A   Clear
11:15 PM 49.6 °F - 36.5 °F 61% 29.74 in 10.0 mi WSW 8.1 mph - N/A   Clear
11:35 PM 49.3 °F - 36.5 °F 61% 29.73 in 10.0 mi WSW 8.1 mph - N/A   Clear
11:55 PM 50.0 °F - 36.7 °F 60% 29.73 in 10.0 mi WSW 8.1 mph - N/A   Clear